Location: Corcelles
(46.1547°N, 4.7234°E)
Time: 10:50:39
(UTC+00:00)

Cosmos 2369 - Pass Details

Date: 14 July 2020
Orbit: 839 x 857 km, 71.0° (Epoch: 05 August)

Event Time Altitude Azimuth Distance (km) Brightness Sun altitude
Rises 01:39:10 0° 334° (NNW) 3,435 7.4 -17.6°
Reaches altitude 10° 01:41:38 10° 335° (NNW) 2,496 6.6 -17.4°
Maximum altitude 01:47:24 81° 62° (ENE) 873 3.8 -16.9°
Drops below altitude 10° 01:53:07 10° 151° (SSE) 2,484 5.8 -16.4°
Enters shadow 01:54:53 - 152° (SSE) 3,154 6.4 -16.3°
